Kiana, AK

6:19 AM AKST on February 24, 2017 (GMT -0900)
Baker Memorial

Weather History for PAIK - November, 2013

Change the Weather History Date:

Tuesday, November 19, 2013

  Actual Average (PASK) Record (PASK)
Temperature  
Mean Temperature -13 °F -  
Max Temperature -13 °F 12 °F 35 °F (2014)
Min Temperature -17 °F 3 °F -18 °F (2006)
Degree Days  
Heating Degree Days 78    
Moisture  
Dew Point -19 °F    
Average Humidity 78    
Maximum Humidity 83    
Minimum Humidity 74    
Precipitation  
Precipitation 0.00 in - - ()
Sea Level Pressure  
Sea Level Pressure 30.49 in    
Wind  
Wind Speed 6 mph (NNW)    
Max Wind Speed 9 mph    
Max Gust Speed -    
Visibility 10 miles    
Events      
Averages and records for this station are not official NWS values.
T = Trace of Precipitation, MM = Missing Value Source: NWS Daily Summary

Daily Weather History Graph

Daily Weather History Graph

Search for Another Location

Airport or City:

Trip Planner

Search our weather history database for the weather conditions in past years. The results will help you decide how hot, cold, wet, or windy it might be!

Date:

Astronomy

Nov. 19, 2013 Rise Set
Actual Time 10:59 AM AKST 3:53 PM AKST
Civil Twilight 9:42 AM AKST 5:11 PM AKST
Nautical Twilight 8:30 AM AKST 6:22 PM AKST
Astronomical Twilight 7:27 AM AKST 7:26 PM AKST
Moon 5:43 PM AKST (11/19) 1:01 PM AKST (11/19)
Length of Visible Light 7h 29m
Length of Day
4h 54m
Waning Gibbous, 95% of the Moon is Illuminated
Nov 19
Waning Gibbous
Nov 25
Last Quarter
Dec 2
New
Dec 9
First Quarter
Dec 17
Full

Hourly Weather History & Observations

Time (AKST) Temp. Windchill Dew Point Humidity Pressure Visibility Wind Dir Wind Speed Gust Speed Precip Events Conditions
12:01 AM -15.0 °F -32.4 °F -18.9 °F 82% 30.47 in 10.0 mi North 8.1 mph - N/A   Clear
1:01 AM -9.0 °F -25.2 °F -13.0 °F 83% 30.46 in 10.0 mi North 8.1 mph - N/A   Clear
2:01 AM -11.9 °F -28.7 °F -16.1 °F 82% 30.47 in 10.0 mi North 8.1 mph - N/A   Clear
3:01 AM -14.1 °F - -18.9 °F 79% 30.49 in 10.0 mi Calm Calm - N/A   Clear
4:01 AM -11.0 °F -26.2 °F -16.1 °F 78% 30.49 in 10.0 mi NE 6.9 mph - N/A   Clear
5:01 AM -11.9 °F - -17.0 °F 78% 30.50 in 10.0 mi Calm Calm - N/A   Clear
6:01 AM -13.0 °F -25.1 °F -18.0 °F 78% 30.49 in 10.0 mi North 4.6 mph - N/A   Clear
7:01 AM -14.1 °F - -18.9 °F 79% 30.50 in 10.0 mi Calm Calm - N/A   Clear
8:01 AM -14.1 °F -23.9 °F -18.0 °F 82% 30.49 in 10.0 mi North 3.5 mph - N/A   Clear
9:01 AM -17.0 °F -31.7 °F -23.1 °F 74% 30.50 in 10.0 mi NW 5.8 mph - N/A   Clear
10:01 AM -16.1 °F -30.6 °F -20.9 °F 79% 30.50 in 10.0 mi NNW 5.8 mph - N/A   Clear
11:01 AM -17.0 °F -29.7 °F -23.1 °F 74% 30.51 in 10.0 mi NNW 4.6 mph - N/A   Clear
12:01 PM -15.0 °F -25.0 °F -20.0 °F 78% 30.51 in 10.0 mi NNW 3.5 mph - N/A   Clear
1:01 PM -11.9 °F -27.3 °F -17.0 °F 78% 30.50 in 10.0 mi NNW 6.9 mph - N/A   Clear
2:01 PM -13.0 °F -31.3 °F -18.9 °F 75% 30.50 in 10.0 mi NW 9.2 mph - N/A   Clear
3:01 PM -13.0 °F -30.0 °F -18.0 °F 78% 30.49 in 10.0 mi NNW 8.1 mph - N/A   Clear
4:01 PM -15.0 °F -32.4 °F -20.0 °F 78% 30.48 in 10.0 mi NW 8.1 mph - N/A   Clear
5:01 PM -17.0 °F -33.4 °F -23.1 °F 74% 30.48 in 10.0 mi NNW 6.9 mph - N/A   Clear
6:01 PM -14.1 °F -23.9 °F -18.9 °F 79% 30.48 in 10.0 mi North 3.5 mph - N/A   Clear
7:01 PM -14.1 °F -29.9 °F -18.9 °F 79% 30.48 in 10.0 mi NNW 6.9 mph - N/A   Clear
8:01 PM -11.9 °F -23.8 °F -17.0 °F 78% 30.49 in 10.0 mi NNW 4.6 mph - N/A   Clear
9:01 PM -13.0 °F -28.6 °F -17.0 °F 82% 30.48 in 10.0 mi North 6.9 mph - N/A   Clear
10:01 PM -13.0 °F -27.0 °F -18.0 °F 78% 30.48 in 10.0 mi NNW 5.8 mph - N/A   Clear
11:01 PM -15.0 °F - -20.0 °F 78% 30.49 in 10.0 mi Calm Calm - N/A   Clear